STARLINK-34515, 64712

Orbit data source: Space-Track

STARLINK-34515, 64712 is a payload satellite owned by SpaceX/Seattle (US) in LEO that was launched on Sat, 28 Jun 2025 UTC via an FALCON 9 launch vehicle from the Air Force Western Test Range (AFWTR). Payload-class satellites include a variety of spacecraft equipped with specific instruments for various scientific and technological missions. These include communications satellites like Starlink; space stations such as the ISS; scientific satellites like the Hubble; Earth observation satellites from companies like Planet Labs, Umbra, and HawkEye 360; GPS; miniature CubeSats for education and research; and military/defense satellites.

Loading next visibility...
Identifier
64712, 2025-142S
Orbit
LEO
Country
Flag of USUS
Related business
Manufacturer
SpaceX/Seattle
Mission
Operational Commercial Communications
Bus & Motor
STARLINK V2MO, Unknown motor
Mass
575 kg wet, ~530 kg dry
Launch date (UTC)
2025-06-28 (1 year ago)
Launch vehicle
FALCON 9
Launch site
Air Force Western Test Range (AFWTR)
Object type
Payload
Rocket body
Debris
Shape & HBR
Box + 2 Pan, 17.7 m
Radar Cross Section
36.964 m², Large (>1 m²)

Expand to show TLE details & history
Last TLE update: 7 hours ago

TLE from 7 hours ago
0 STARLINK-34515
1 64712U 25142S   26207.61263549  .00005987  00000-0  50898-3 0  9999
2 64712  70.0021 324.0132 0003121 269.3748  90.7053 14.98342507 60275
Epoch: 2026-07-26T14:42Z
TLE epoch observation values (Epoch: 2026-07-26T14:42:11.706Z)
Latitude
-0.00006°
Longitude
159.15634°
Altitude
574.469 km
Speed
7.574 km/s
True Right ascension
21h 36m 03s
True Declination
0° 00' 00"
Sunlit
Object was in full shadow at epoch
Visualization orbit readout
Latitude
Unknown
Longitude
Unknown
Altitude
Unknown
Speed
Unknown
Apparent Right ascension
Unknown
Apparent Declination
Unknown
Sunlit
N/A
Visualization observer readout
Local Sidereal Time
11:05:01
Azimuth
Unknown
Elevation
Unknown
Doppler factor
Unknown
Orbital elements
Apogee altitude
572.134 km
Perigee altitude
567.797 km
Semi-major axis
6,948.102 km
Eccentricity
0.00031
Inclination
70.0021°
RAAN
324.0132°
Arg. of periapsis
269.3748°
True anomaly
90.74106°
Mean anomaly
90.7053°
Eccentric anomaly
90.72318°
Mean motion
3.74752 °/min
Orbital period
96.06 mins
BSTAR
0.00050898
Loading maneuver chart data...
Computing Atmospheric mass density...
Loading historical data...
Loading historical data...
Loading historical data...
Loading historical data...
Loading historical data...
Loading historical data...
Loading historical data...

Documentation

Showing up to 5 results
|